Overview Statistics Trail Chart Weather Telemetry Raw packets
 

This is the latest recevied weather packets stored in our database for station/object KC1BRV. If no packets are shown the sender has not sent any weather packets the latest 10 day(s).

<< 89 90 91 92 93 94 95 >>
Time Temp. Humidity Pressure Rain* Wind** Luminosity Snow
1787957713 25.56° C 78% 1016.4 hPa 0 mm - 22 W/m² -
1787957409 25.56° C 77% 1016.4 hPa 0 mm - 28 W/m² -
1787957109 26.11° C 77% 1016.2 hPa 0 mm - 32 W/m² -
1787956809 26.11° C 76% 1016.5 hPa 0 mm - 36 W/m² -
1787956504 26.67° C 74% 1016.3 hPa 0 mm - 44 W/m² -
1787956199 26.67° C 74% 1016.2 hPa 0 mm - 54 W/m² -
1787955898 26.67° C 74% 1016.1 hPa 0 mm - 65 W/m² -
1787955594 26.67° C 74% 1016.2 hPa 0 mm - 63 W/m² -
1787955290 26.67° C 74% 1016.2 hPa 0 mm - 56 W/m² -
1787954989 26.67° C 73% 1016.3 hPa 0 mm - 51 W/m² -
1787954680 26.67° C 73% 1016.3 hPa 0 mm - 47 W/m² -
1787954379 26.67° C 73% 1016.1 hPa 0 mm - 50 W/m² -
1787954075 26.67° C 74% 1016 hPa 0 mm - 59 W/m² -
1787953773 26.67° C 72% 1016.2 hPa 0 mm - 70 W/m² -
1787953469 26.67° C 74% 1016 hPa 0 mm - 81 W/m² -
1787953166 26.67° C 72% 1016.1 hPa 0 mm - 103 W/m² -
1787952860 26.67° C 73% 1016.1 hPa 0 mm - 103 W/m² -
1787952560 26.67° C 74% 1016.1 hPa 0 mm - 97 W/m² -
1787952258 26.67° C 74% 1016.2 hPa 0 mm - 98 W/m² -
1787951955 26.67° C 74% 1016 hPa 0 mm - 97 W/m² -
1787951650 27.22° C 72% 1016.2 hPa 0 mm - 78 W/m² -
1787951346 27.22° C 69% 1016.3 hPa 0 mm - 67 W/m² -
1787951041 27.22° C 68% 1016 hPa 0 mm - 73 W/m² -
1787950737 27.22° C 69% 1016 hPa 0 mm - 82 W/m² -
1787950433 27.22° C 68% 1016 hPa 0 mm - 84 W/m² -

* Rain latest hour (hover to see other rain measurements)
** Current wind speed in m/s (hover to see current wind gust speed)